Stündliche Wetter Caudebec-en-Caux

Heute, 29 Oktober, Donnerstag

Zeit Temperatur Niederschläge Wind Luftdruck Luftfeuchtigkeit
00:00 +10°C° 0.3 mm 8 m/S 752 mmHg 84%
01:00 +10°C° 0.1 mm 7 m/S 752 mmHg 84%
02:00 +10°C° 0.1 mm 6 m/S 752 mmHg 84%
03:00 +10°C° 0.1 mm 6 m/S 753 mmHg 84%
04:00 +10°C° 0.1 mm 5 m/S 753 mmHg 85%
05:00 +10°C° 0.1 mm 5 m/S 754 mmHg 86%
06:00 +10°C° 0.1 mm 5 m/S 754 mmHg 87%
07:00 +10°C° 0.1 mm 5 m/S 755 mmHg 87%
08:00 +10°C° 0.1 mm 6 m/S 755 mmHg 88%
09:00 +10°C° 0.1 mm 6 m/S 756 mmHg 88%
10:00 +11°C° 0 mm 6 m/S 756 mmHg 88%
11:00 +11°C° 0 mm 6 m/S 756 mmHg 87%
12:00 +12°C° 0 mm 5 m/S 755 mmHg 87%
13:00 +13°C° 0 mm 5 m/S 756 mmHg 85%
14:00 +13°C° 0 mm 5 m/S 756 mmHg 84%
15:00 +14°C° 0 mm 5 m/S 756 mmHg 82%
16:00 +14°C° 0 mm 5 m/S 756 mmHg 83%
17:00 +14°C° 0 mm 5 m/S 756 mmHg 84%
18:00 +13°C° 0 mm 5 m/S 756 mmHg 85%
19:00 +13°C° 0 mm 5 m/S 756 mmHg 86%
20:00 +13°C° 0 mm 6 m/S 756 mmHg 87%
21:00 +13°C° 0 mm 6 m/S 756 mmHg 88%
22:00 +13°C° 0 mm 6 m/S 756 mmHg 88%
23:00 +11°C° 0 mm 6 m/S 756 mmHg 88%

Morgen, 30 Oktober, Freitag

Zeit Temperatur Niederschläge Wind Luftdruck Luftfeuchtigkeit
00:00 +11°C° 0 mm 6 m/S 756 mmHg 88%
01:00 +11°C° 0 mm 6 m/S 757 mmHg 87%
02:00 +11°C° 0 mm 6 m/S 757 mmHg 86%
03:00 +13°C° 0 mm 6 m/S 757 mmHg 85%
04:00 +11°C° 0 mm 6 m/S 757 mmHg 86%
05:00 +12°C° 0 mm 5 m/S 757 mmHg 87%
06:00 +12°C° 0 mm 5 m/S 757 mmHg 88%
07:00 +13°C° 0 mm 6 m/S 757 mmHg 87%
08:00 +13°C° 0 mm 6 m/S 758 mmHg 85%
09:00 +14°C° 0 mm 6 m/S 758 mmHg 84%
10:00 +14°C° 0 mm 6 m/S 758 mmHg 81%
11:00 +15°C° 0 mm 6 m/S 758 mmHg 78%
12:00 +15°C° 0 mm 6 m/S 758 mmHg 76%
13:00 +15°C° 0 mm 5 m/S 758 mmHg 76%
14:00 +15°C° 0 mm 5 m/S 758 mmHg 77%
15:00 +15°C° 0 mm 4 m/S 758 mmHg 78%
16:00 +15°C° 0 mm 4 m/S 758 mmHg 78%
17:00 +14°C° 0 mm 4 m/S 758 mmHg 78%
18:00 +14°C° 0 mm 3 m/S 758 mmHg 78%
19:00 +13°C° 0 mm 3 m/S 758 mmHg 81%
20:00 +12°C° 0 mm 3 m/S 758 mmHg 85%
21:00 +11°C° 0 mm 3 m/S 758 mmHg 89%
22:00 +11°C° 0 mm 3 m/S 758 mmHg 90%
23:00 +11°C° 0 mm 4 m/S 757 mmHg 91%

übermorgen, 31 Oktober, Samstag

Zeit Temperatur Niederschläge Wind Luftdruck Luftfeuchtigkeit
00:00 +10°C° 0 mm 4 m/S 757 mmHg 92%
01:00 +10°C° 0 mm 4 m/S 757 mmHg 92%
02:00 +10°C° 0 mm 4 m/S 757 mmHg 92%
03:00 +10°C° 0 mm 4 m/S 756 mmHg 92%
04:00 +10°C° 0 mm 4 m/S 756 mmHg 92%
05:00 +9°C° 0 mm 5 m/S 756 mmHg 91%
06:00 +9°C° 0 mm 5 m/S 755 mmHg 91%
07:00 +10°C° 0 mm 5 m/S 755 mmHg 86%
08:00 +11°C° 0 mm 6 m/S 755 mmHg 82%
09:00 +13°C° 0 mm 6 m/S 755 mmHg 77%
10:00 +14°C° 0 mm 6 m/S 754 mmHg 74%
11:00 +15°C° 0 mm 7 m/S 754 mmHg 70%
12:00 +17°C° 0 mm 7 m/S 754 mmHg 67%
13:00 +16°C° 0.1 mm 7 m/S 754 mmHg 72%
14:00 +16°C° 0.1 mm 7 m/S 753 mmHg 76%
15:00 +15°C° 0.1 mm 7 m/S 753 mmHg 81%
16:00 +15°C° 0 mm 6 m/S 753 mmHg 83%
17:00 +14°C° 0 mm 6 m/S 752 mmHg 85%
18:00 +14°C° 0 mm 6 m/S 752 mmHg 87%
19:00 +14°C° 0 mm 6 m/S 752 mmHg 87%
20:00 +15°C° 0 mm 7 m/S 751 mmHg 86%
21:00 +15°C° 0 mm 7 m/S 751 mmHg 85%
22:00 +15°C° 0 mm 8 m/S 751 mmHg 82%
23:00 +16°C° 0 mm 9 m/S 750 mmHg 79%

1 November, Sonntag

Zeit Temperatur Niederschläge Wind Luftdruck Luftfeuchtigkeit
00:00 +16°C° 0 mm 10 m/S 749 mmHg 77%
01:00 +16°C° 0.2 mm 10 m/S 749 mmHg 77%
02:00 +16°C° 0.2 mm 10 m/S 748 mmHg 77%
03:00 +14°C° 0.2 mm 11 m/S 748 mmHg 77%
04:00 +16°C° 0.3 mm 11 m/S 747 mmHg 80%
05:00 +16°C° 0.3 mm 11 m/S 747 mmHg 83%
06:00 +16°C° 0.3 mm 11 m/S 747 mmHg 86%
07:00 +16°C° 0.4 mm 11 m/S 747 mmHg 86%
08:00 +16°C° 0.4 mm 10 m/S 747 mmHg 87%
09:00 +17°C° 0.4 mm 10 m/S 747 mmHg 87%
10:00 +17°C° 0.3 mm 9 m/S 747 mmHg 88%
11:00 +17°C° 0.3 mm 8 m/S 747 mmHg 89%
12:00 +17°C° 0.3 mm 7 m/S 748 mmHg 90%
13:00 +17°C° 0.1 mm 6 m/S 748 mmHg 91%
14:00 +16°C° 0.1 mm 6 m/S 748 mmHg 91%
15:00 +16°C° 0.1 mm 5 m/S 748 mmHg 91%
16:00 +17°C° 0.4 mm 6 m/S 747 mmHg 91%
17:00 +17°C° 0.4 mm 7 m/S 747 mmHg 91%
18:00 +17°C° 0.4 mm 8 m/S 747 mmHg 91%
19:00 +17°C° 0.1 mm 9 m/S 747 mmHg 90%
20:00 +17°C° 0.1 mm 9 m/S 747 mmHg 89%
21:00 +17°C° 0.1 mm 10 m/S 746 mmHg 88%
22:00 +17°C° 0 mm 10 m/S 746 mmHg 86%
23:00 +17°C° 0 mm 10 m/S 746 mmHg 84%

2 November, Montag

Zeit Temperatur Niederschläge Wind Luftdruck Luftfeuchtigkeit
00:00 +17°C° 0 mm 10 m/S 746 mmHg 82%
01:00 +17°C° 0 mm 10 m/S 746 mmHg 81%
02:00 +17°C° 0 mm 10 m/S 745 mmHg 80%
03:00 +17°C° 0 mm 10 m/S 745 mmHg 79%
04:00 +17°C° 0 mm 10 m/S 745 mmHg 79%
05:00 +17°C° 0 mm 9 m/S 744 mmHg 78%
06:00 +17°C° 0 mm 9 m/S 744 mmHg 78%
07:00 +17°C° 0 mm 10 m/S 744 mmHg 77%
08:00 +17°C° 0 mm 10 m/S 744 mmHg 76%
09:00 +18°C° 0 mm 11 m/S 744 mmHg 74%
10:00 +17°C° 0.7 mm 10 m/S 744 mmHg 78%
11:00 +16°C° 0.7 mm 8 m/S 745 mmHg 81%
12:00 +14°C° 0.7 mm 7 m/S 745 mmHg 85%
13:00 +14°C° 0.7 mm 6 m/S 746 mmHg 86%
14:00 +13°C° 0.7 mm 6 m/S 747 mmHg 87%
15:00 +13°C° 0.7 mm 5 m/S 747 mmHg 88%
16:00 +12°C° 0.2 mm 5 m/S 748 mmHg 85%
17:00 +12°C° 0.2 mm 5 m/S 749 mmHg 83%
18:00 +10°C° 0.2 mm 5 m/S 750 mmHg 81%
19:00 +9°C° 0 mm 5 m/S 751 mmHg 81%
20:00 +9°C° 0 mm 5 m/S 752 mmHg 81%
21:00 +8°C° 0 mm 4 m/S 752 mmHg 81%
22:00 +8°C° 0 mm 4 m/S 753 mmHg 83%
23:00 +7°C° 0 mm 4 m/S 753 mmHg 84%

3 November, Dienstag

Zeit Temperatur Niederschläge Wind Luftdruck Luftfeuchtigkeit
00:00 +7°C° 0 mm 4 m/S 754 mmHg 86%
01:00 +6°C° 0 mm 4 m/S 754 mmHg 87%
02:00 +6°C° 0 mm 4 m/S 754 mmHg 87%
03:00 +7°C° 0 mm 3 m/S 754 mmHg 88%
04:00 +5°C° 0 mm 3 m/S 754 mmHg 88%
05:00 +5°C° 0 mm 3 m/S 755 mmHg 88%
06:00 +5°C° 0 mm 3 m/S 755 mmHg 88%
07:00 +7°C° 0 mm 3 m/S 755 mmHg 85%
08:00 +8°C° 0 mm 3 m/S 756 mmHg 82%
09:00 +9°C° 0 mm 3 m/S 756 mmHg 79%
10:00 +10°C° 0 mm 3 m/S 756 mmHg 75%
11:00 +11°C° 0 mm 3 m/S 756 mmHg 71%
12:00 +13°C° 0 mm 3 m/S 756 mmHg 66%
13:00 +14°C° 0 mm 2 m/S 756 mmHg 67%
14:00 +14°C° 0 mm 2 m/S 756 mmHg 67%
15:00 +14°C° 0 mm 2 m/S 756 mmHg 67%
16:00 +12°C° 0 mm 2 m/S 756 mmHg 70%
17:00 +10°C° 0 mm 2 m/S 756 mmHg 74%
18:00 +9°C° 0 mm 2 m/S 756 mmHg 77%
19:00 +8°C° 0 mm 2 m/S 757 mmHg 77%
20:00 +8°C° 0 mm 2 m/S 757 mmHg 76%
21:00 +8°C° 0 mm 3 m/S 757 mmHg 76%
22:00 +8°C° 0 mm 2 m/S 758 mmHg 75%
23:00 +7°C° 0 mm 2 m/S 758 mmHg 75%
Mehr zeigen